Regional Weather Roundup
Issued by NWS

Home | Current Version | Previous Version | Text Only | Print | Product List | Glossary Off
Versions: 1 2 3 4 5 6 7 8 9 10 11 12 13 14 15 16 17 18 19 20 21 22 23 24 25 26 27 28 29 30 31 32 33 34 35 36 37 38 39 40 41 42 43 44 45 46 47 48 49 50

000
ASUS43 KOAX 281902
RWRNE

WEATHER ROUNDUP FOR NEBRASKA
NATIONAL WEATHER SERVICE OMAHA NE
200 PM CDT MON JUL 28 2014

NOTES: SATELLITE DATA IS BEING USED TO AUGMENT CLOUD COVER ABOVE
       12000 FEET.
       "FAIR" INDICATES FEW OR NO CLOUDS BELOW 12,000 FEET WITH NO
       SIGNIFICANT WEATHER AND/OR OBSTRUCTIONS TO VISIBILITY.

  * THESE STATIONS DO NOT REPORT WEATHER SUCH AS RAIN...SNOW OR FOG.

NEZ001>004-019>022-054>056-282000-
NEBRASKA PANHANDLE

CITY           SKY/WX    TMP DP  RH WIND       PRES   REMARKS
SCOTTSBLUFF    SUNNY     82  59  45 E12G17    30.29F
ALLIANCE       SUNNY     82  54  37 SE10G20   30.30F
CHADRON        SUNNY     83  54  36 CALM      30.27F
KIMBALL        MOSUNNY   82  53  37 SE12      30.32F
SIDNEY         SUNNY     86  56  35 SE13G20   30.32F
$$

NEZ057>060-069>072-079>082-282000-
SOUTHWEST NEBRASKA

CITY           SKY/WX    TMP DP  RH WIND       PRES   REMARKS
NORTH PLATTE   SUNNY     81  56  42 E13       30.29F
IMPERIAL       SUNNY     85  56  37 SE13G20   30.28F
LEXINGTON      SUNNY     78  57  49 E5        30.30F
MCCOOK         SUNNY     84  57  39 E12G17    30.28F
OGALLALA       MOSUNNY   80  58  46 SE12      30.29F
$$

NEZ005>010-023>029-035>040-094-282000-
NORTH CENTRAL NEBRASKA

CITY           SKY/WX    TMP DP  RH WIND       PRES   REMARKS
VALENTINE      SUNNY     78  52  40 VRB5      30.30F
AINSWORTH      MOSUNNY   73  53  49 E3        30.31F
BROKEN BOW     MOSUNNY   77  55  46 CALM      30.30F
O`NEILL        MOSUNNY   74  49  41 W5        30.31F
ORD            SUNNY     75  54  47 NW6       30.29F
THEDFORD       CLOUDY    78  55  44 E3        30.32F
$$

NEZ041-046>049-061>064-073>077-083>087-282000-
SOUTH CENTRAL NEBRASKA

CITY           SKY/WX    TMP DP  RH WIND       PRES   REMARKS
GRAND ISLAND   MOSUNNY   75  56  51 N9        30.30F
AURORA         MOSUNNY   75  56  52 NE6       30.30F
HASTINGS       MOSUNNY   75  55  49 NE6       30.31F
HEBRON         MOSUNNY   76  53  44 N12       30.28F
HOLDREGE       SUNNY     76  57  52 CALM      30.30F
KEARNEY *      CLOUDY    75  55  50 NE8       30.31F
YORK           MOSUNNY   73  55  53 N6        30.30F
$$

NEZ011>018-030>034-042>045-282000-
NORTHEAST NEBRASKA

CITY           SKY/WX    TMP DP  RH WIND       PRES   REMARKS
NORFOLK        PTSUNNY   75  53  46 NW9       30.28F
ALBION         PTSUNNY   72  55  53 N7        30.30F
BLAIR          MOSUNNY   73  53  49 N7        30.25F
COLUMBUS *     PTSUNNY   73  54  49 N10G16    30.28F
TEKAMAH        PTSUNNY   75  57  53 NW7       30.24F
WAYNE          PTSUNNY   73  56  56 N6        30.27F
$$

NEZ050>053-065>068-078-088>093-282000-
SOUTHEAST NEBRASKA

CITY           SKY/WX    TMP DP  RH WIND       PRES   REMARKS
LINCOLN        PTSUNNY   78  53  41 N8        30.27F
OMAHA EPPLEY   MOSUNNY   77  55  46 NW10      30.24F
BEATRICE       MOSUNNY   76  57  51 NW10G17   30.27S
FALLS CITY     PTSUNNY   77  59  53 N8        30.23F
NEBRASKA CITY  PTSUNNY   73  55  51 N5        30.26S
PLATTSMOUTH    MOSUNNY   75  54  47 W6        30.25F
$$

NEZ044-045-051>053-067-282000-
OMAHA AREA

CITY           SKY/WX    TMP DP  RH WIND       PRES   REMARKS
OMAHA EPPLEY   MOSUNNY   77  55  46 NW10      30.24F
BLAIR          MOSUNNY   73  53  49 N7        30.25F
MILLARD        PTSUNNY   75  57  53 NW9       30.25F
OFFUTT AFB     SUNNY     76  58  51 CALM      30.24F
PLATTSMOUTH    MOSUNNY   75  54  47 W6        30.25F
WAHOO          MOCLDY    76  56  49 NW7       30.26F
$$



USA.gov is the U.S. government's official web portal to all federal, state and local government web resources and services.